FW7970 Weather Reports


time (UTC)temp
C
wind
direction
speed
KPH
gust
KPH
rain 1hr
cm
rain 24hr
cm
rain mn
cm
humidity
%
barometer
mb
20260906172331 36 199 3.2 3.2 0.00 0.00 0.00 45 1016.2
20260906171826 37 279 1.6 1.6 0.00 0.00 0.00 45 1016.0
20260906171320 37 3 0.0 1.6 0.00 0.00 0.00 45 1016.4
20260906170816 35 114 3.2 3.2 0.00 0.00 0.00 46 1016.3
20260906170311 35 76 3.2 3.2 0.00 0.00 0.00 48 1016.3
20260906165808 37 124 3.2 4.8 0.00 0.00 0.00 45 1016.3
20260906165306 37 354 1.6 1.6 0.00 0.00 0.00 45 1016.7
20260906164802 36 15 3.2 4.8 0.00 0.00 0.00 47 1016.5
20260906164256 36 346 1.6 1.6 0.00 0.00 0.00 46 1016.7
20260906163752 35 73 0.0 0.0 0.00 0.00 0.00 47 1016.6
20260906163248 35 43 0.0 1.6 0.00 0.00 0.00 47 1016.5
20260906162745 36 97 3.2 8.0 0.00 0.00 0.00 47 1016.6
20260906162239 36 40 0.0 0.0 0.00 0.00 0.00 46 1016.7
20260906161734 35 31 0.0 1.6 0.00 0.00 0.00 48 1016.8
20260906161233 35 67 4.8 4.8 0.00 0.00 0.00 50 1016.8
20260906160732 35 350 1.6 1.6 0.00 0.00 0.00 51 1016.7
20260906160232 34 27 1.6 1.6 0.00 0.00 0.00 52 1016.9
20260906155729 34 103 4.8 8.0 0.00 0.00 0.00 53 1017.1
20260906155224 35 22 0.0 0.0 0.00 0.00 0.00 51 1017.1
20260906154720 35 16 1.6 1.6 0.00 0.00 0.00 53 1016.8
20260906154215 34 12 0.0 0.0 0.00 0.00 0.00 54 1016.7
20260906153713 33 81 0.0 1.6 0.00 0.00 0.00 55 1016.8
20260906153208 32 98 1.6 3.2 0.00 0.00 0.00 55 1016.6
20260906152703 33 8 1.6 1.6 0.00 0.00 0.00 57 1016.7
20260906152157 32 41 0.0 1.6 0.00 0.00 0.00 58 1016.8
20260906151651 32 102 8.0 9.7 0.00 0.00 0.00 60 1016.6
20260906151148 32 14 1.6 3.2 0.00 0.00 0.00 61 1016.7
20260906150643 31 79 1.6 1.6 0.00 0.00 0.00 62 1016.4
20260906150138 31 99 4.8 4.8 0.00 0.00 0.00 62 1016.4
20260906145637 32 79 1.6 1.6 0.00 0.00 0.00 61 1016.7
20260906145131 31 12 0.0 0.0 0.00 0.00 0.00 62 1016.6
20260906144625 31 28 1.6 1.6 0.00 0.00 0.00 62 1016.6
20260906144120 31 7 0.0 1.6 0.00 0.00 0.00 62 1016.7
20260906143615 30 56 1.6 3.2 0.00 0.00 0.00 65 1016.7
20260906143112 30 92 3.2 3.2 0.00 0.00 0.00 66 1016.6
20260906142611 30 44 1.6 3.2 0.00 0.00 0.00 66 1016.4
20260906142106 30 106 3.2 3.2 0.00 0.00 0.00 66 1016.7
20260906141605 29 59 3.2 3.2 0.00 0.00 0.00 68 1016.6
20260906141101 28 79 3.2 3.2 0.00 0.00 0.00 69 1016.7
20260906140600 28 80 3.2 3.2 0.00 0.00 0.00 69 1016.6
20260906140055 28 49 1.6 1.6 0.00 0.00 0.00 71 1016.7
20260906135552 27 120 3.2 3.2 0.00 0.00 0.00 72 1016.5
20260906135048 27 63 0.0 1.6 0.00 0.00 0.00 71 1016.6
20260906134543 27 112 3.2 3.2 0.00 0.00 0.00 72 1016.5
20260906134038 27 62 4.8 4.8 0.00 0.00 0.00 72 1016.7
20260906133534 26 27 0.0 0.0 0.00 0.00 0.00 74 1016.5
20260906133029 26 92 1.6 3.2 0.00 0.00 0.00 75 1016.7
20260906132524 26 48 1.6 1.6 0.00 0.00 0.00 74 1016.6
20260906132019 26 62 0.0 1.6 0.00 0.00 0.00 75 1016.6
20260906131515 26 85 1.6 1.6 0.00 0.00 0.00 76 1016.5
20260906131010 25 80 1.6 1.6 0.00 0.00 0.00 77 1016.4
20260906130509 25 85 1.6 3.2 0.00 0.00 0.00 77 1016.3
20260906130005 25 78 1.6 1.6 0.00 0.00 0.00 78 1016.3
20260906125502 25 67 1.6 1.6 0.00 0.00 0.00 78 1016.3
20260906125001 25 62 1.6 1.6 0.00 0.00 0.00 79 1016.1
20260906124457 23 49 1.6 1.6 0.00 0.00 0.00 82 1016.2
20260906123957 23 53 0.0 1.6 0.00 0.00 0.00 82 1016.1
20260906123451 23 66 1.6 1.6 0.00 0.00 0.00 82 1016.0
20260906122950 23 30 0.0 0.0 0.00 0.00 0.00 83 1016.0
20260906122445 23 49 0.0 0.0 0.00 0.00 0.00 84 1015.6
20260906121942 23 75 1.6 1.6 0.00 0.00 0.00 84 1015.5
20260906121438 23 74 1.6 1.6 0.00 0.00 0.00 85 1015.8
20260906120934 23 69 1.6 1.6 0.00 0.00 0.00 84 1015.9
20260906120429 23 69 1.6 1.6 0.00 0.00 0.00 84 1015.8
20260906115925 23 68 1.6 1.6 0.00 0.00 0.00 84 1015.7
20260906115421 23 58 1.6 1.6 0.00 0.00 0.00 84 1015.4
20260906114915 23 54 1.6 1.6 0.00 0.00 0.00 83 1015.6
20260906114409 23 60 1.6 1.6 0.00 0.00 0.00 83 1015.5
20260906113905 23 55 1.6 1.6 0.00 0.00 0.00 83 1015.6
20260906113404 23 43 0.0 0.0 0.00 0.00 0.00 83 1015.6
20260906112900 23 56 0.0 1.6 0.00 0.00 0.00 83 1015.3
20260906112355 23 72 1.6 1.6 0.00 0.00 0.00 83 1015.4
20260906111850 23 75 1.6 1.6 0.00 0.00 0.00 83 1015.4
20260906111349 23 72 1.6 1.6 0.00 0.00 0.00 83 1015.4
20260906110844 23 66 1.6 1.6 0.00 0.00 0.00 84 1015.3
20260906110340 22 83 1.6 1.6 0.00 0.00 0.00 85 1015.3
20260906105839 22 83 1.6 1.6 0.00 0.00 0.00 85 1015.3
20260906105335 23 89 3.2 3.2 0.00 0.00 0.00 84 1015.3
20260906104830 23 93 3.2 3.2 0.00 0.00 0.00 83 1015.4
20260906104329 23 66 1.6 1.6 0.00 0.00 0.00 82 1015.5
20260906103822 23 46 1.6 1.6 0.00 0.00 0.00 81 1015.5
20260906103321 24 44 1.6 1.6 0.00 0.00 0.00 80 1015.5
20260906102817 24 41 0.0 0.0 0.00 0.00 0.00 79 1015.4
20260906102316 24 39 0.0 0.0 0.00 0.00 0.00 79 1015.3
20260906101811 24 39 0.0 0.0 0.00 0.00 0.00 79 1015.4
20260906101306 24 39 0.0 0.0 0.00 0.00 0.00 78 1015.2
20260906100802 24 39 0.0 0.0 0.00 0.00 0.00 79 1015.5
20260906100301 23 39 0.0 0.0 0.00 0.00 0.00 81 1015.3
20260906095756 23 39 0.0 0.0 0.00 0.00 0.00 81 1015.2
20260906095252 23 40 1.6 1.6 0.00 0.00 0.00 81 1015.3
20260906094750 23 39 1.6 1.6 0.00 0.00 0.00 80 1015.2
20260906094246 24 39 1.6 1.6 0.00 0.00 0.00 79 1015.0
20260906093742 24 39 1.6 1.6 0.00 0.00 0.00 78 1015.0
20260906093237 24 39 1.6 1.6 0.00 0.00 0.00 77 1014.7
20260906092733 25 31 0.0 0.0 0.00 0.00 0.00 76 1014.8
20260906092232 25 32 0.0 0.0 0.00 0.00 0.00 76 1015.0
20260906091728 25 20 0.0 0.0 0.00 0.00 0.00 76 1014.6
20260906091224 25 25 0.0 0.0 0.00 0.00 0.00 76 1014.5
20260906090720 25 33 0.0 0.0 0.00 0.00 0.00 76 1014.8
20260906090219 25 39 1.6 1.6 0.00 0.00 0.00 76 1014.8
20260906085719 24 30 0.0 0.0 0.00 0.00 0.00 76 1014.5
20260906085218 24 29 0.0 0.0 0.00 0.00 0.00 78 1014.5
20260906084712 24 31 0.0 0.0 0.00 0.00 0.00 79 1014.6
20260906084207 25 29 0.0 0.0 0.00 0.00 0.00 79 1014.6
20260906083702 25 29 0.0 0.0 0.00 0.00 0.00 75 1014.4
20260906083157 25 33 0.0 0.0 0.00 0.00 0.00 75 1014.6
20260906082652 25 46 1.6 1.6 0.00 0.00 0.00 75 1014.4
20260906082148 24 48 1.6 1.6 0.00 0.00 0.00 78 1014.3
20260906081643 24 46 1.6 1.6 0.00 0.00 0.00 78 1014.3
20260906081138 24 45 1.6 1.6 0.00 0.00 0.00 79 1014.3
20260906080635 25 27 0.0 0.0 0.00 0.00 0.00 77 1014.3
20260906080130 25 27 0.0 1.6 0.00 0.00 0.00 76 1014.5
20260906075624 25 22 0.0 0.0 0.00 0.00 0.00 73 1014.5
20260906075119 25 7 0.0 0.0 0.00 0.00 0.00 73 1014.4
20260906074615 25 5 0.0 0.0 0.00 0.00 0.00 73 1014.4
20260906074113 25 5 0.0 0.0 0.00 0.00 0.00 73 1014.4
20260906073608 26 6 0.0 0.0 0.00 0.00 0.00 72 1014.5
20260906073104 26 6 0.0 0.0 0.00 0.00 0.00 71 1014.5
20260906072558 25 14 0.0 0.0 0.00 0.00 0.00 71 1014.6
20260906072055 25 350 0.0 0.0 0.00 0.00 0.00 75 1014.5
20260906071551 25 349 0.0 0.0 0.00 0.00 0.00 74 1014.6
20260906071045 26 349 0.0 0.0 0.00 0.00 0.00 70 1014.7
20260906070542 26 44 0.0 1.6 0.00 0.00 0.00 68 1014.6
20260906070037 26 46 1.6 3.2 0.00 0.00 0.00 69 1014.6
20260906065537 26 43 0.0 0.0 0.00 0.00 0.00 71 1014.5
20260906065033 27 44 0.0 0.0 0.00 0.00 0.00 68 1014.6
20260906064528 27 45 0.0 0.0 0.00 0.00 0.00 66 1015.0
20260906064023 27 46 0.0 0.0 0.00 0.00 0.00 66 1014.7
20260906063518 27 35 0.0 0.0 0.00 0.00 0.00 65 1014.7
20260906063014 27 27 0.0 0.0 0.00 0.00 0.00 66 1014.8
20260906062509 27 43 0.0 0.0 0.00 0.00 0.00 65 1014.8
20260906062003 27 50 1.6 1.6 0.00 0.00 0.00 65 1015.0
20260906061459 27 46 1.6 1.6 0.00 0.00 0.00 64 1014.8
20260906060954 27 45 0.0 0.0 0.00 0.00 0.00 64 1015.0
20260906060450 27 46 0.0 0.0 0.00 0.00 0.00 63 1014.7
20260906055947 27 50 1.6 1.6 0.00 0.00 0.00 63 1014.8
20260906055442 27 54 1.6 1.6 0.00 0.00 0.00 64 1014.7
20260906054938 27 46 1.6 1.6 0.00 0.00 0.00 64 1015.0
20260906054432 27 54 1.6 1.6 0.00 0.00 0.00 64 1015.0
20260906053928 27 46 1.6 1.6 0.00 0.00 0.00 64 1015.0
20260906053424 27 46 1.6 1.6 0.00 0.00 0.00 64 1015.0
20260906052920 27 46 1.6 1.6 0.00 0.00 0.00 64 1015.0
20260906052416 27 33 0.0 1.6 0.00 0.00 0.00 65 1015.0
20260906051912 27 27 0.0 0.0 0.00 0.00 0.00 65 1015.0
20260906051412 27 29 0.0 0.0 0.00 0.00 0.00 65 1015.0
20260906050908 27 9 0.0 0.0 0.00 0.00 0.00 65 1014.8
20260906050403 27 3 0.0 0.0 0.00 0.00 0.00 65 1014.8
20260906045901 27 2 0.0 0.0 0.00 0.00 0.00 64 1014.8
20260906045355 27 17 0.0 0.0 0.00 0.00 0.00 63 1015.0
20260906044851 28 27 0.0 0.0 0.00 0.00 0.00 62 1014.8
20260906044346 28 22 0.0 0.0 0.00 0.00 0.00 60 1015.1
20260906043842 28 15 0.0 0.0 0.00 0.00 0.00 60 1015.1
20260906043338 28 17 0.0 0.0 0.00 0.00 0.00 59 1014.8
20260906042833 28 26 0.0 0.0 0.00 0.00 0.00 59 1015.2
20260906042331 28 26 0.0 0.0 0.00 0.00 0.00 59 1015.1
20260906041827 28 26 0.0 0.0 0.00 0.00 0.00 59 1015.0
20260906041322 29 60 0.0 0.0 0.00 0.00 0.00 58 1015.1
20260906040817 30 43 0.0 0.0 0.00 0.00 0.00 57 1015.0
20260906040312 30 29 0.0 0.0 0.00 0.00 0.00 55 1015.1
20260906035813 30 32 0.0 0.0 0.00 0.00 0.00 55 1014.7
20260906035308 30 15 0.0 0.0 0.00 0.00 0.00 55 1015.0
20260906034803 30 16 0.0 0.0 0.00 0.00 0.00 54 1015.0
20260906034258 30 19 0.0 0.0 0.00 0.00 0.00 55 1015.0
20260906033754 29 26 0.0 0.0 0.00 0.00 0.00 55 1014.6
20260906033253 30 27 0.0 0.0 0.00 0.00 0.00 55 1014.6
20260906032749 29 23 0.0 0.0 0.00 0.00 0.00 55 1015.0
20260906032244 29 11 0.0 0.0 0.00 0.00 0.00 55 1014.6
20260906031739 30 10 0.0 0.0 0.00 0.00 0.00 55 1014.8
20260906031236 30 9 0.0 0.0 0.00 0.00 0.00 55 1014.6
20260906030735 30 10 0.0 0.0 0.00 0.00 0.00 54 1014.7
20260906030230 30 10 0.0 0.0 0.00 0.00 0.00 54 1014.7
20260906025729 30 10 0.0 0.0 0.00 0.00 0.00 53 1014.5
20260906025223 30 6 0.0 0.0 0.00 0.00 0.00 53 1014.4
20260906024723 30 6 0.0 0.0 0.00 0.00 0.00 53 1014.5
20260906024222 30 14 0.0 0.0 0.00 0.00 0.00 53 1014.2
20260906023718 30 27 0.0 0.0 0.00 0.00 0.00 53 1014.1
20260906023213 30 43 0.0 0.0 0.00 0.00 0.00 53 1014.2
20260906022708 30 43 0.0 0.0 0.00 0.00 0.00 53 1014.3
20260906022203 30 44 0.0 1.6 0.00 0.00 0.00 53 1014.2
20260906021700 30 36 0.0 1.6 0.00 0.00 0.00 54 1014.1
20260906021157 30 28 0.0 0.0 0.00 0.00 0.00 55 1014.0
20260906020653 30 35 0.0 0.0 0.00 0.00 0.00 55 1014.0
20260906020148 30 38 1.6 3.2 0.00 0.00 0.00 53 1014.2
20260906015642 30 63 0.0 1.6 0.00 0.00 0.00 54 1013.9
20260906015140 30 61 1.6 1.6 0.00 0.00 0.00 56 1013.7
20260906014635 30 62 1.6 1.6 0.00 0.00 0.00 57 1013.7
20260906014131 30 44 1.6 1.6 0.00 0.00 0.00 55 1013.8
20260906013626 30 61 3.2 3.2 0.00 0.00 0.00 54 1013.8
20260906013122 30 35 0.0 1.6 0.00 0.00 0.00 54 1013.5
20260906012617 30 29 0.0 0.0 0.00 0.00 0.00 55 1013.5
20260906012117 30 29 0.0 0.0 0.00 0.00 0.00 54 1013.6
20260906011612 31 27 0.0 0.0 0.00 0.00 0.00 53 1013.3
20260906011107 31 27 0.0 0.0 0.00 0.00 0.00 53 1013.2
20260906010602 31 37 0.0 0.0 0.00 0.00 0.00 53 1013.5
20260906010059 31 71 1.6 1.6 0.00 0.00 0.00 52 1013.1
20260906005558 31 25 0.0 0.0 0.00 0.00 0.00 52 1013.0
20260906005056 31 26 0.0 0.0 0.00 0.00 0.00 51 1013.1
20260906004550 32 39 0.0 0.0 0.00 0.00 0.00 50 1013.1
20260906004045 32 32 0.0 0.0 0.00 0.00 0.00 49 1012.9
20260906003540 32 33 0.0 0.0 0.00 0.00 0.00 49 1013.0
20260906003036 32 25 0.0 0.0 0.00 0.00 0.00 49 1013.1
20260906002531 32 31 0.0 0.0 0.00 0.00 0.00 48 1013.4
20260906002026 33 38 0.0 0.0 0.00 0.00 0.00 47 1013.3
20260906001521 33 30 0.0 0.0 0.00 0.00 0.00 47 1013.3
20260906001015 33 48 1.6 1.6 0.00 0.00 0.00 46 1013.1
20260906000512 34 28 0.0 0.0 0.00 0.00 0.00 45 1013.1
20260906000006 35 20 0.0 0.0 0.00 0.00 0.00 44 1013.1
20260905235500 35 2 0.0 0.0 0.00 0.00 0.00 43 1013.1
20260905234955 35 24 0.0 0.0 0.00 0.00 0.00 42 1013.0
20260905234450 35 45 0.0 0.0 0.00 0.00 0.00 41 1013.2
20260905233944 35 22 0.0 0.0 0.00 0.00 0.00 40 1013.0
20260905233440 36 12 0.0 1.6 0.00 0.00 0.00 40 1013.1
20260905232939 36 70 1.6 1.6 0.00 0.00 0.00 39 1013.4
20260905232435 36 330 3.2 3.2 0.00 0.00 0.00 38 1013.2
20260905231931 36 98 1.6 3.2 0.00 0.00 0.00 39 1013.0
20260905231426 37 108 1.6 1.6 0.00 0.00 0.00 38 1013.0
20260905230923 37 121 0.0 1.6 0.00 0.00 0.00 38 1012.9
20260905230421 37 62 1.6 1.6 0.00 0.00 0.00 37 1012.8
20260905225919 37 6 0.0 0.0 0.00 0.00 0.00 37 1012.8
20260905225414 37 13 0.0 0.0 0.00 0.00 0.00 37 1012.8
20260905224909 37 99 1.6 1.6 0.00 0.00 0.00 37 1012.9
20260905224406 37 160 1.6 1.6 0.00 0.00 0.00 36 1013.0
20260905223859 38 247 0.0 0.0 0.00 0.00 0.00 36 1013.1
20260905223357 38 17 1.6 3.2 0.00 0.00 0.00 36 1012.7
20260905222851 37 124 3.2 4.8 0.00 0.00 0.00 36 1012.8
20260905222350 38 197 3.2 4.8 0.00 0.00 0.00 35 1012.9
20260905221841 38 158 1.6 1.6 0.00 0.00 0.00 35 1012.7
20260905221337 38 61 1.6 3.2 0.00 0.00 0.00 34 1012.7
20260905220833 38 51 1.6 1.6 0.00 0.00 0.00 35 1012.7
20260905220329 38 5 1.6 1.6 0.00 0.00 0.00 33 1012.9
20260905215828 39 355 0.0 0.0 0.00 0.00 0.00 32 1012.9
20260905215324 39 4 1.6 1.6 0.00 0.00 0.00 33 1013.0
20260905214820 38 4 1.6 1.6 0.00 0.00 0.00 34 1013.0
20260905214315 39 228 4.8 4.8 0.00 0.00 0.00 33 1013.2
20260905213810 39 264 1.6 3.2 0.00 0.00 0.00 33 1013.0
20260905213307 38 263 4.8 9.7 0.00 0.00 0.00 33 1013.1
20260905212801 38 22 1.6 3.2 0.00 0.00 0.00 34 1013.0
20260905212301 39 12 1.6 1.6 0.00 0.00 0.00 33 1013.4
20260905211755 39 352 0.0 0.0 0.00 0.00 0.00 33 1013.3
20260905211250 39 137 1.6 1.6 0.00 0.00 0.00 33 1013.1
20260905210748 40 130 4.8 4.8 0.00 0.00 0.00 34 1013.5
20260905210247 40 351 0.0 1.6 0.00 0.00 0.00 33 1013.3
20260905205746 39 321 3.2 3.2 0.00 0.00 0.00 33 1013.5
20260905205241 39 28 1.6 3.2 0.00 0.00 0.00 33 1013.7
20260905204740 40 237 6.4 8.0 0.00 0.00 0.00 34 1013.5
20260905204236 40 359 1.6 3.2 0.00 0.00 0.00 32 1013.6
20260905203735 40 340 0.0 1.6 0.00 0.00 0.00 33 1013.7
20260905203231 40 98 3.2 3.2 0.00 0.00 0.00 33 1013.7
20260905202726 38 292 1.6 1.6 0.00 0.00 0.00 33 1013.8
20260905202221 38 112 1.6 3.2 0.00 0.00 0.00 33 1013.8
20260905201716 38 78 3.2 3.2 0.00 0.00 0.00 35 1013.9
20260905201211 39 351 1.6 1.6 0.00 0.00 0.00 33 1013.8
20260905200706 37 109 1.6 3.2 0.00 0.00 0.00 35 1014.1
20260905200202 38 115 4.8 8.0 0.00 0.00 0.00 36 1014.1
20260905195700 39 145 1.6 1.6 0.00 0.00 0.00 34 1014.1
20260905195155 40 19 1.6 1.6 0.00 0.00 0.00 34 1014.2
20260905194650 39 84 4.8 4.8 0.00 0.00 0.00 35 1014.3
20260905194149 39 99 1.6 1.6 0.00 0.00 0.00 34 1014.4
20260905193644 38 105 6.4 8.0 0.00 0.00 0.00 34 1014.4
20260905193139 38 350 1.6 1.6 0.00 0.00 0.00 35 1014.4
20260905192634 38 350 1.6 1.6 0.00 0.00 0.00 35 1014.4
20260905192131 38 96 3.2 3.2 0.00 0.00 0.00 36 1014.4
20260905191630 38 107 3.2 3.2 0.00 0.00 0.00 36 1014.7
20260905191128 39 289 1.6 3.2 0.00 0.00 0.00 34 1014.6
20260905190627 39 102 3.2 4.8 0.00 0.00 0.00 34 1014.8
20260905190121 38 14 1.6 1.6 0.00 0.00 0.00 35 1015.0
20260905185620 39 357 1.6 1.6 0.00 0.00 0.00 34 1015.0
20260905185114 38 102 8.0 9.7 0.00 0.00 0.00 36 1015.0
20260905184609 38 108 3.2 3.2 0.00 0.00 0.00 37 1015.0
20260905184108 37 102 3.2 3.2 0.00 0.00 0.00 37 1015.1
20260905183607 37 255 1.6 1.6 0.00 0.00 0.00 37 1015.3
20260905183103 38 307 1.6 1.6 0.00 0.00 0.00 35 1015.1
20260905182602 38 20 0.0 0.0 0.00 0.00 0.00 35 1015.5
20260905182056 39 338 1.6 1.6 0.00 0.00 0.00 35 1015.4
20260905181550 38 90 6.4 8.0 0.00 0.00 0.00 37 1015.4
20260905181044 38 263 4.8 4.8 0.00 0.00 0.00 35 1015.6
20260905180539 38 112 4.8 8.0 0.00 0.00 0.00 37 1015.7
20260905180035 37 226 6.4 8.0 0.00 0.00 0.00 35 1016.0
20260905175533 38 241 4.8 4.8 0.00 0.00 0.00 36 1015.9
20260905175030 38 79 3.2 9.7 0.00 0.00 0.00 35 1015.8
20260905174525 38 162 3.2 3.2 0.00 0.00 0.00 36 1015.9
20260905174020 37 68 3.2 4.8 0.00 0.00 0.00 37 1015.9
20260905173517 38 22 1.6 1.6 0.00 0.00 0.00 37 1016.0
20260905173012 37 123 1.6 1.6 0.00 0.00 0.00 37 1016.1